Location: Haliburton Scout Reserve
(45.0900°N, 78.3200°W)
Time: 17:32:36
(UTC-05:00)

Courier 1B - Pass Details

Date: 30 November 2023
Orbit: 962 x 1209 km, 28.3° (Epoch: 23 February)

Event Time Altitude Azimuth Distance (km) Brightness Sun altitude
Rises 13:55:49 0° 243° (WSW) 3,631 11.4 18.4°
Reaches altitude 10° 13:59:26 10° 223° (SW) 2,690 11.7 18.1°
Maximum altitude 14:03:22 17° 185° (S) 2,247 10.9 17.7°
Drops below altitude 10° 14:07:22 10° 148° (SSE) 2,738 10.3 17.4°
Sets 14:11:05 0° 129° (SE) 3,725 10.6 17.0°
